Langdon, ND

9:26 AM CDT on August 27, 2016 (GMT -0500)
Langdon

Weather History for KD55 - February, 2013

Change the Weather History Date:

Sunday, February 24, 2013

  Actual Average (KDVL) Record (KDVL)
Temperature  
Mean Temperature 14 °F -  
Max Temperature 24 °F 27 °F 50 °F (1981)
Min Temperature 5 °F 7 °F -27 °F (2003)
Degree Days  
Heating Degree Days 50    
Moisture  
Dew Point 11 °F    
Average Humidity 93    
Maximum Humidity 100    
Minimum Humidity 85    
Precipitation  
Precipitation 0.00 in - - ()
Sea Level Pressure  
Sea Level Pressure 29.90 in    
Wind  
Wind Speed 12 mph (SW)    
Max Wind Speed 16 mph    
Max Gust Speed -    
Visibility 9 miles    
Events Snow    
Averages and records for this station are not official NWS values.
T = Trace of Precipitation, MM = Missing Value Source: NWS Daily Summary

Daily Weather History Graph

Daily Weather History Graph

Search for Another Location

Airport or City:

Trip Planner

Search our weather history database for the weather conditions in past years. The results will help you decide how hot, cold, wet, or windy it might be!

Date:

Astronomy

Feb. 24, 2013 Rise Set
Actual Time 7:24 AM CST 6:09 PM CST
Civil Twilight 6:52 AM CST 6:41 PM CST
Nautical Twilight 6:16 AM CST 7:18 PM CST
Astronomical Twilight 5:39 AM CST 7:54 PM CST
Moon 5:22 PM CST (2/24) 6:24 AM CST (2/24)
Length of Visible Light 11h 48m
Length of Day
10h 45m
Waxing Gibbous, 99% of the Moon is Illuminated
Feb 24
Waxing Gibbous
Feb 25
Full
Mar 4
Last Quarter
Mar 11
New
Mar 19
First Quarter

Hourly Weather History & Observations

Time (CST) Temp. Windchill Dew Point Humidity Pressure Visibility Wind Dir Wind Speed Gust Speed Precip Events Conditions
12:15 AM 8.6 °F -7.0 °F 6.8 °F 92% 29.84 in 10.0 mi South 12.7 mph - N/A   Clear
12:35 AM 8.6 °F -7.7 °F 6.8 °F 92% 29.84 in 10.0 mi South 13.8 mph - N/A   Clear
12:55 AM 8.6 °F -7.0 °F 6.8 °F 92% 29.84 in 10.0 mi South 12.7 mph - N/A   Clear
1:15 AM 8.6 °F -7.7 °F 6.8 °F 92% 29.84 in 10.0 mi South 13.8 mph - N/A   Clear
1:35 AM 8.6 °F -7.0 °F 6.8 °F 92% 29.84 in 10.0 mi South 12.7 mph - N/A   Clear
1:55 AM 8.6 °F -8.3 °F 8.6 °F 100% 29.85 in 10.0 mi South 15.0 mph - N/A   Clear
2:15 AM 10.4 °F -6.0 °F 8.6 °F 92% 29.85 in 10.0 mi South 15.0 mph - N/A   Clear
2:35 AM 8.6 °F -7.7 °F 6.8 °F 92% 29.85 in 10.0 mi South 13.8 mph - N/A   Clear
2:55 AM 8.6 °F -7.7 °F 6.8 °F 92% 29.85 in 10.0 mi South 13.8 mph - N/A   Clear
3:15 AM 8.6 °F -8.3 °F 6.8 °F 92% 29.85 in 10.0 mi South 15.0 mph - N/A   Clear
3:35 AM 8.6 °F -7.7 °F 6.8 °F 92% 29.85 in 10.0 mi South 13.8 mph - N/A   Clear
3:55 AM 8.6 °F -7.0 °F 6.8 °F 92% 29.85 in 10.0 mi South 12.7 mph - N/A   Clear
4:15 AM 8.6 °F -7.7 °F 6.8 °F 92% 29.85 in 10.0 mi South 13.8 mph - N/A   Clear
4:35 AM 8.6 °F -8.3 °F 6.8 °F 92% 29.85 in 10.0 mi South 15.0 mph - N/A   Clear
4:55 AM 10.4 °F -6.0 °F 8.6 °F 92% 29.85 in 10.0 mi South 15.0 mph - N/A   Clear
5:15 AM 10.4 °F -6.6 °F 8.6 °F 92% 29.85 in 10.0 mi South 16.1 mph - N/A   Clear
5:35 AM 10.4 °F -6.0 °F 6.8 °F 85% 29.86 in 10.0 mi South 15.0 mph - N/A   Clear
5:55 AM 8.6 °F -8.3 °F 6.8 °F 92% 29.86 in 10.0 mi South 15.0 mph - N/A   Clear
6:15 AM 8.6 °F -8.3 °F 6.8 °F 92% 29.87 in 10.0 mi South 15.0 mph - N/A   Clear
6:35 AM 8.6 °F -7.7 °F 6.8 °F 92% 29.87 in 10.0 mi South 13.8 mph - N/A   Clear
6:55 AM 8.6 °F -7.7 °F 6.8 °F 92% 29.87 in 10.0 mi South 13.8 mph - N/A   Clear
7:15 AM 8.6 °F -8.3 °F 6.8 °F 92% 29.87 in 10.0 mi South 15.0 mph - N/A   Clear
7:35 AM 8.6 °F -7.0 °F 6.8 °F 92% 29.87 in 10.0 mi South 12.7 mph - N/A   Clear
7:55 AM 8.6 °F -7.7 °F 6.8 °F 92% 29.87 in 10.0 mi South 13.8 mph - N/A   Clear
8:15 AM 8.6 °F -7.7 °F 6.8 °F 92% 29.87 in 10.0 mi South 13.8 mph - N/A   Clear
8:35 AM 10.4 °F -4.8 °F 6.8 °F 85% 29.88 in 10.0 mi SSW 12.7 mph - N/A   Clear
8:55 AM 10.4 °F -4.8 °F 6.8 °F 85% 29.88 in 10.0 mi SSW 12.7 mph - N/A   Clear
9:15 AM 10.4 °F -4.8 °F 6.8 °F 85% 29.88 in 10.0 mi SSW 12.7 mph - N/A   Clear
9:35 AM 10.4 °F -4.1 °F 8.6 °F 92% 29.89 in 10.0 mi SSW 11.5 mph - N/A   Mostly Cloudy
9:55 AM 12.2 °F -1.0 °F 10.4 °F 92% 29.89 in 10.0 mi SSW 10.4 mph - N/A   Overcast
10:15 AM 14.0 °F 2.0 °F 10.4 °F 86% 29.89 in 10.0 mi SSW 9.2 mph - N/A   Scattered Clouds
10:35 AM 15.8 °F 2.7 °F 12.2 °F 86% 29.90 in 10.0 mi SSW 11.5 mph - N/A   Scattered Clouds
10:55 AM 15.8 °F 3.4 °F 14.0 °F 93% 29.89 in 10.0 mi SSW 10.4 mph - N/A   Overcast
11:15 AM 17.6 °F 5.7 °F 15.8 °F 93% 29.90 in 10.0 mi SW 10.4 mph - N/A   Mostly Cloudy
11:35 AM 17.6 °F 6.4 °F 15.8 °F 93% 29.90 in 10.0 mi SW 9.2 mph - N/A   Mostly Cloudy
11:55 AM 19.4 °F 8.6 °F 17.6 °F 93% 29.90 in 10.0 mi SW 9.2 mph - N/A   Overcast
12:15 PM 19.4 °F 10.4 °F 17.6 °F 93% 29.91 in 10.0 mi SW 6.9 mph - N/A   Overcast
12:35 PM 21.2 °F 10.9 °F 19.4 °F 93% 29.91 in 7.0 mi SW 9.2 mph - N/A   Overcast
12:55 PM 23.0 °F 13.1 °F 19.4 °F 86% 29.90 in 10.0 mi WSW 9.2 mph - N/A   Overcast
1:15 PM 23.0 °F 13.1 °F 21.2 °F 93% 29.90 in 9.0 mi WSW 9.2 mph - N/A   Overcast
1:35 PM 23.0 °F 12.4 °F 23.0 °F 100% 29.90 in 8.0 mi West 10.4 mph - N/A   Overcast
1:55 PM 23.0 °F 13.1 °F 23.0 °F 100% 29.89 in 7.0 mi West 9.2 mph - N/A   Overcast
2:15 PM 23.0 °F 13.1 °F 23.0 °F 100% 29.89 in 3.0 mi West 9.2 mph - N/A Snow Light Snow
2:35 PM 23.0 °F 11.7 °F 23.0 °F 100% 29.90 in 5.0 mi WNW 11.5 mph - N/A Snow Light Snow
2:55 PM 23.0 °F 14.7 °F 23.0 °F 100% 29.90 in 8.0 mi West 6.9 mph - N/A   Overcast
3:15 PM 24.8 °F 16.1 °F 23.0 °F 93% 29.90 in 8.0 mi WNW 8.1 mph - N/A   Overcast
3:35 PM 24.8 °F 15.3 °F 23.0 °F 93% 29.90 in 8.0 mi West 9.2 mph - N/A   Overcast
3:55 PM 24.8 °F 15.3 °F 23.0 °F 93% 29.90 in 7.0 mi West 9.2 mph - N/A   Overcast
4:15 PM 24.8 °F 14.0 °F 23.0 °F 93% 29.91 in 7.0 mi West 11.5 mph - N/A   Overcast
4:35 PM 23.0 °F 11.7 °F 23.0 °F 100% 29.91 in 7.0 mi WNW 11.5 mph - N/A   Overcast
4:55 PM 23.0 °F 11.1 °F 23.0 °F 100% 29.91 in 7.0 mi WNW 12.7 mph - N/A   Overcast
5:15 PM 21.2 °F 9.5 °F 19.4 °F 93% 29.92 in 6.0 mi WNW 11.5 mph - N/A   Scattered Clouds
5:35 PM 19.4 °F 8.6 °F 17.6 °F 93% 29.92 in 8.0 mi West 9.2 mph - N/A   Clear
5:55 PM 17.6 °F 7.3 °F 15.8 °F 93% 29.93 in 8.0 mi West 8.1 mph - N/A   Clear
6:15 PM 15.8 °F 6.1 °F 14.0 °F 93% 29.93 in 8.0 mi West 6.9 mph - N/A   Clear
6:35 PM 14.0 °F 2.0 °F 12.2 °F 93% 29.93 in 8.0 mi West 9.2 mph - N/A   Clear
6:55 PM 12.2 °F -1.0 °F 10.4 °F 92% 29.93 in 10.0 mi West 10.4 mph - N/A   Clear
7:15 PM 12.2 °F -0.2 °F 10.4 °F 92% 29.94 in 10.0 mi West 9.2 mph - N/A   Clear
7:35 PM 10.4 °F -1.5 °F 8.6 °F 92% 29.94 in 10.0 mi West 8.1 mph - N/A   Clear
7:55 PM 10.4 °F -2.4 °F 10.4 °F 100% 29.95 in 10.0 mi West 9.2 mph - N/A   Clear
8:15 PM 8.6 °F -3.7 °F 6.8 °F 92% 29.95 in 10.0 mi WSW 8.1 mph - N/A   Clear
8:35 PM 8.6 °F -5.5 °F 6.8 °F 92% 29.96 in 10.0 mi WSW 10.4 mph - N/A   Clear
8:55 PM 6.8 °F -3.5 °F 6.8 °F 100% 29.96 in 9.0 mi WSW 5.8 mph - N/A   Clear
9:15 PM 8.6 °F -5.5 °F 6.8 °F 92% 29.96 in 8.0 mi WSW 10.4 mph - N/A   Clear
9:35 PM 6.8 °F -7.8 °F 6.8 °F 100% 29.96 in 7.0 mi WSW 10.4 mph - N/A   Clear
9:55 PM 6.8 °F -5.9 °F 5.0 °F 92% 29.95 in 7.0 mi WSW 8.1 mph - N/A   Clear
10:15 PM 6.8 °F -4.8 °F 5.0 °F 92% 29.96 in 8.0 mi WSW 6.9 mph - N/A   Clear
10:35 PM 5.0 °F -6.9 °F 5.0 °F 100% 29.95 in 7.0 mi West 6.9 mph - N/A   Clear
10:55 PM 5.0 °F -11.6 °F 5.0 °F 100% 29.96 in 9.0 mi West 12.7 mph - N/A   Clear
11:15 PM 5.0 °F -10.0 °F 5.0 °F 100% 29.95 in 10.0 mi West 10.4 mph - N/A   Clear
11:35 PM 6.8 °F -8.6 °F 5.0 °F 92% 29.95 in 10.0 mi West 11.5 mph - N/A   Clear
11:55 PM 6.8 °F -8.6 °F 5.0 °F 92% 29.95 in 10.0 mi West 11.5 mph - N/A   Clear